Location: Newark
(23.5328°S, 46.7919°W)
Time: 22:44:35
(UTC+00:00)

X-37B - Visible Passes

Search period start: 26 February 2021 00:00
Search period end: 08 March 2021 00:00
Orbit: 383 x 391 km, 45.0° (Epoch: 10 February)

Date Brightness Start Highest point End Pass type
(mag) Time Alt. Az. Time Alt. Az. Time Alt. Az.
26 Feb 2.9 23:30:12 10° SW 23:31:47 26° WSW 23:31:47 26° WSW visible
27 Feb 1.1 22:31:55 10° SW 22:35:04 46° SE 22:36:20 29° E visible
28 Feb 2.5 23:10:31 10° WSW 23:13:12 24° NW 23:13:19 24° NW visible
01 Mar 1.0 22:11:43 10° SW 22:14:55 63° NW 22:18:06 10° NE visible
